Location: Kelshall
(52.0000°N, 0.0500°W)
Time: 14:57:28
(UTC+00:00)

Cosmos 1782 Rocket - Pass Details

Date: 18 September 2020
Orbit: 607 x 632 km, 82.5° (Epoch: 27 October)

Event Time Altitude Azimuth Distance (km) Brightness Sun altitude
Rises 18:43:20 0° 177° (S) 2,885 6.9 -6.4°
Reaches altitude 10° 18:45:34 10° 174° (S) 1,988 6.0 -6.7°
Maximum altitude 18:49:54 58° 95° (E) 736 3.6 -7.4°
Drops below altitude 10° 18:54:17 10° 18° (NNE) 2,019 6.2 -8.0°
Sets 18:56:34 0° 14° (NNE) 2,935 7.0 -8.4°
